SCP
1 1 1 0 0 0 -0 -0 -0 -0 -0 -0 0 0 0 0 0 0 0 0 0 0 0 0 0 0 0 0 0 -0 -0 -0 -0 -0 -0 -0 -0 -0 -0 0 0 -0 -0 -0 -0 0 0 0 0
1 1 0 0 0 0 -0 -0 -0 -0 -0 -0 -0 0 0 0 0 0 0 0 0 0 0 0 0 0 0 0 0 0 -0 -0 -0 -0 -0 -0 -0 -0 -0 -0 -0 -0 -0 -0 -0 0 0 0 0
0 0 0 0 0 0 -0 -0 -0 -0 -0 -0 -0 -0 -0 0 0 0 0 0 0 0 0 0 0 0 0 0 0 0 0 0 0 -0 -0 -0 -0 -0 -0 -0 -0 -0 -0 -0 -0 -0 0 0 0
0 0 0 0 0 -0 -0 -0 -0 0 -0 -0 -0 -0 -0 -0 0 0 0 0 0 0 0 0 0 0 0 0 0 0 0 0 0 0 0 0 0 -0 -0 -0 -0 -0 -0 -0 -0 -0 0 0 0
0 0 0 0 0 0 0 0 0 0 0 0 -0 -0 -0 -0 0 0 0 0 0 0 0 0 0 0 0 0 0 0 0 0 0 0 0 0 0 0 0 0 0 0 -0 -0 -0 -0 0 0 0
0 0 0 0 0 0 0 0 0 0 0 0 0 -0 -0 -0 0 0 0 0 0 0 0 0 0 0 0 0 0 0 0 0 0 0 0 0 0 0 0 0 0 0 0 0 0 0 0 0 0
0 0 0 0 0 0 0 0 0 0 0 0 0 0 0 0 0 0 0 0 0 0 0 0 0 0 0 0 0 0 0 0 0 0 0 0 0 0 0 0 0 0 0 0 0 0 0 0 0
0 0 0 0 0 0 0 0 0 0 0 0 0 0 0 0 0 0 0 0 0 0 0 0 0 0 0 0 0 0 0 0 0 0 0 0 0 0 0 0 0 0 0 0 0 0 0 0 0
0 0 0 0 0 0 0 0 0 0 0 0 0 0 0 0 0 0 0 0 0 0 0 0 0 0 0 0 0 0 0 0 0 0 0 0 0 0 0 0 0 0 0 0 0 0 0 0 0
0 0 0 0 0 0 0 0 0 0 0 0 0 0 0 0 0 0 0 0 0 0 0 0 0 0 0 0 0 0 0 0 0 0 0 0 0 0 0 0 0 0 0 0 0 0 0 0 0
0 0 0 0 0 0 0 0 0 0 0 0 0 0 0 0 0 0 0 0 0 0 0 0 0 0 0 0 0 0 0 0 0 0 0 0 0 0 0 0 0 0 0 0 0 0 0 0 0
0 0 0 0 0 0 0 0 0 0 0 0 0 0 0 0 0 0 0 0 0 0 0 0 0 0 0 0 0 0 0 0 0 0 0 0 0 0 0 0 0 0 0 0 0 0 0 0 0
0 0 0 0 0 0 0 0 0 0 0 0 0 0 0 0 0 0 0 0 0 0 0 0 0 0 0 0 0 0 0 0 0 0 0 0 0 0 0 0 0 0 0 0 0 0 0 0 0
0 0 0 0 0 0 0 0 0 0 0 0 0 0 0 0 0 0 0 0 0 0 0 0 0 0 0 0 0 0 0 0 0 0 0 0 0 0 0 0 0 0 0 0 0 0 0 0 0
0 0 0 0 0 0 0 0 0 0 0 0 0 0 0 0 0 0 0 0 0 0 0 0 0 0 0 0 0 0 0 0 0 1 0 0 0 0 0 0 0 0 0 0 0 0 0 0 0
0 0 0 0 0 0 0 0 0 0 0 0 0 0 0 0 0 0 0 0 0 0 0 0 0 0 0 0 0 0 0 0 1 1 1 1 0 0 0 0 0 0 0 0 0 0 0 0 0
0 0 0 0 0 0 0 0 0 0 0 0 0 0 0 0 0 0 0 0 0 0 0 0 0 0 0 0 0 0 0 1 1 1 1 1 1 0 0 0 0 0 0 0 0 0 0 0 0
0 0 0 0 0 0 0 0 0 0 0 0 0 0 0 0 0 0 0 0 0 0 0 0 0 0 0 0 0 0 0 1 1 1 1 1 1 1 1 0 0 0 0 0 0 0 0 0 0
0 0 0 0 0 0 0 0 0 0 0 0 0 0 0 0 0 0 0 0 0 0 0 0 0 0 0 0 0 0 0 1 1 1 1 1 1 1 1 1 1 1 0 0 0 0 0 0 0
0 0 0 0 0 0 0 0 0 0 0 0 0 0 0 0 0 0 0 0 0 0 0 0 0 0 0 0 0 0 0 0 1 1 1 1 1 1 1 1 1 1 0 0 0 0 0 0 0
0 0 0 0 0 0 0 0 0 0 0 0 0 0 0 0 0 0 0 0 0 0 0 0 0 0 0 0 0 0 0 0 0 1 1 1 1 1 1 1 1 1 0 0 0 0 0 0 0
0 0 0 0 0 0 0 0 0 0 0 0 0 0 0 0 0 0 0 0 0 0 0 0 0 0 0 0 0 0 0 0 0 1 1 1 1 1 1 1 1 1 0 0 0 0 0 0 0
0 0 0 0 0 0 0 0 0 0 0 0 0 0 0 0 0 0 0 0 0 0 0 0 0 0 0 0 0 0 0 0 0 0 1 1 1 1 1 1 1 1 1 0 0 0 0 0 0
0 0 0 0 0 0 0 0 0 0 0 0 0 0 0 0 0 0 0 0 0 0 0 0 0 0 0 0 0 0 0 0 0 0 1 1 1 1 1 1 1 1 1 0 0 0 0 0 0
0 0 0 0 0 0 0 0 0 0 0 0 0 0 0 0 0 0 0 0 0 0 0 0 0 0 0 0 0 0 0 0 0 0 0 1 1 1 1 1 1 1 1 0 0 0 0 0 0
0 0 0 0 0 0 0 0 0 0 0 0 0 0 0 0 0 0 0 0 0 0 0 0 0 0 0 0 0 0 0 0 0 0 0 1 1 1 1 1 1 1 1 0 0 0 0 0 0
0 0 0 0 0 0 0 0 0 0 0 0 0 0 0 0 0 0 0 0 0 0 0 0 0 0 0 0 0 0 0 0 0 0 0 0 1 1 1 0 0 0 0 0 0 0 0 0 0
0 0 0 0 0 0 0 0 0 0 0 0 0 0 0 0 0 0 0 0 0 0 0 0 0 0 0 0 0 0 0 0 0 0 0 0 0 0 0 0 0 0 0 0 0 0 0 0 0
0 0 0 0 0 0 0 0 0 0 0 0 0 0 0 0 0 0 0 0 0 0 0 0 0 0 0 0 0 0 0 0 0 0 0 0 0 0 0 0 0 0 0 0 0 0 0 0 0
0 0 0 0 0 0 0 0 0 0 0 0 0 0 0 0 0 0 0 0 0 0 0 0 0 0 0 0 0 0 0 0 0 0 0 0 0 0 0 0 0 0 0 0 0 0 0 0 0
Wind_Speed
8 7 5 4 4 5 11 8 7 6 5 6 4 2 2 5 5 6 5 10 12 14 14 14 12 12 12 11 10 10 9 9 9 9 8 8 7 7 6 6 5 4 4 3 3 3 3 3 3
6 6 4 4 2 9 10 7 9 8 6 4 4 3 3 6 7 6 7 9 12 13 13 13 13 12 11 11 10 10 9 9 9 8 8 7 7 6 6 6 5 4 3 3 3 3 3 3 3
7 6 4 0 7 9 10 7 7 7 5 4 4 5 5 6 5 5 8 11 12 12 11 12 12 12 11 10 10 9 9 9 8 8 8 7 6 6 5 5 5 4 3 3 3 3 3 3 3
4 4 3 3 10 8 6 6 5 5 6 7 4 6 7 7 4 7 11 11 12 11 10 12 11 11 11 10 9 9 9 8 8 8 8 7 7 6 5 5 4 4 4 3 3 2 2 2 3
4 3 3 6 8 6 6 6 5 7 8 8 7 8 8 8 7 10 10 10 10 10 9 11 10 10 10 9 9 9 8 8 8 8 7 7 6 6 5 4 4 4 3 3 3 2 2 2 2
2 2 3 6 7 6 6 6 6 9 10 9 7 7 8 7 7 8 8 7 8 8 8 10 11 9 9 8 8 8 8 9 9 8 7 7 6 6 5 4 4 4 3 3 3 2 2 2 2
2 1 4 5 5 6 8 6 9 9 11 11 9 7 7 8 6 6 6 5 5 6 6 6 9 10 10 8 8 8 9 9 9 8 8 7 7 6 5 5 4 4 4 3 3 2 2 2 2
2 2 5 4 5 7 7 7 8 11 11 10 11 8 6 6 6 5 5 4 4 5 6 6 6 7 8 9 10 9 9 10 9 9 9 8 7 7 6 8 6 5 4 4 3 3 3 2 2
3 2 4 3 3 6 7 7 8 9 11 14 13 12 8 7 6 5 4 2 2 2 4 5 6 6 6 6 7 9 10 10 10 10 10 9 9 9 9 7 6 5 5 4 4 3 3 3 5
1 3 6 5 6 8 12 11 8 7 13 13 14 13 10 7 6 5 4 3 2 3 4 5 6 6 7 5 5 6 7 8 9 8 9 9 7 5 5 9 6 6 6 6 5 4 6 9 7
5 6 7 8 9 9 10 14 15 8 12 13 13 11 9 10 10 9 8 8 7 6 5 6 6 7 7 5 6 4 4 5 7 9 9 7 6 5 6 5 8 9 9 8 8 9 8 7 4
8 11 8 7 7 8 9 8 13 17 11 10 11 12 12 13 12 11 10 10 9 9 8 8 8 7 8 7 6 6 5 5 6 8 9 7 5 5 5 5 5 5 5 5 5 5 6 6 7
9 10 14 16 19 17 17 15 13 15 11 10 11 13 14 13 12 10 10 10 10 10 9 9 9 8 8 7 7 7 7 7 7 6 7 8 6 7 6 6 5 6 5 6 6 6 6 6 6
10 13 12 11 12 12 17 14 10 12 10 11 12 13 13 13 12 11 11 11 11 10 10 9 9 8 8 7 7 7 7 7 7 6 8 9 7 7 6 7 6 6 5 5 6 7 6 6 5
13 13 11 8 6 5 5 13 12 10 9 11 12 12 12 12 12 12 12 11 11 10 10 10 9 8 8 8 8 7 7 7 7 7 9 9 9 8 7 6 6 6 6 8 6 7 6 5 6
7 6 5 8 5 3 1 8 10 9 9 11 11 11 11 11 12 12 12 11 11 10 10 9 8 9 9 8 8 6 6 7 6 6 7 9 9 9 7 6 7 6 5 5 5 6 6 6 7
5 3 4 6 9 4 7 8 8 9 9 11 11 11 12 12 14 13 13 12 11 11 10 10 9 9 9 8 7 7 6 6 6 6 6 7 9 10 8 7 7 8 6 5 6 6 6 6 6
1 1 3 6 7 9 11 10 8 9 11 11 12 12 13 14 14 14 13 12 11 11 10 10 9 9 9 7 6 5 5 6 6 6 6 7 7 9 8 7 9 8 6 6 6 7 6 5 5
2 1 3 6 4 6 10 9 8 9 11 13 13 13 14 14 14 14 13 13 12 12 11 10 10 9 7 6 6 5 5 5 5 6 8 9 8 9 8 7 7 7 6 7 8 7 7 6 6
1 1 4 7 5 4 7 8 7 8 11 12 13 14 15 16 16 16 15 14 13 13 12 12 11 10 9 6 6 5 6 6 6 6 7 9 9 9 8 8 6 7 6 7 7 6 5 6 6
4 2 2 5 6 5 5 5 5 6 8 10 12 13 15 15 17 17 16 15 14 14 13 11 12 11 9 9 6 6 5 5 5 6 6 7 9 9 8 8 7 7 7 7 7 7 7 6 6
2 3 1 5 7 3 4 3 6 6 8 12 14 15 15 16 16 15 16 16 15 14 13 12 11 11 10 8 7 7 6 6 6 5 5 6 7 8 9 9 9 8 7 7 7 7 6 6 5
4 2 3 6 5 4 1 6 5 6 11 14 15 15 15 15 15 16 16 15 14 13 12 12 12 11 10 8 7 7 5 5 5 5 5 5 5 6 8 9 9 9 7 8 8 7 7 6 6
0 4 5 5 6 4 2 5 4 7 12 14 14 15 15 15 15 15 16 15 14 13 12 11 11 11 10 9 7 6 5 5 5 4 4 3 3 4 6 7 8 8 7 8 8 8 9 8 8
2 5 5 6 5 2 2 2 5 7 9 11 13 14 14 14 14 15 16 15 15 15 13 12 12 11 11 10 8 7 5 4 4 3 3 2 2 2 3 5 6 6 6 7 7 7 8 9 8
3 6 6 5 2 3 2 1 5 5 7 9 10 11 12 13 14 14 15 14 14 14 13 13 12 12 11 10 9 7 6 4 3 3 2 1 0 0 1 2 3 5 6 6 7 6 7 6 7
1 2 4 4 1 2 3 2 4 3 7 9 10 11 13 13 13 14 14 13 13 13 13 12 12 12 11 11 10 9 7 6 5 4 3 2 2 1 2 1 2 3 4 5 5 5 6 6 6
5 3 3 4 4 2 2 1 3 6 8 10 11 12 13 13 12 13 12 13 12 11 11 11 11 11 11 10 10 8 9 9 7 6 6 5 4 3 2 2 2 2 3 3 3 3 4 5 5
1 1 1 1 4 4 1 3 4 5 7 8 9 10 11 12 11 11 11 11 11 11 11 11 11 11 11 11 10 10 10 10 9 8 8 7 6 5 4 4 3 3 3 2 2 2 3 4 4
3 3 3 3 2 2 2 4 4 3 4 6 7 9 9 10 9 9 10 10 11 11 11 11 11 11 11 10 10 10 10 10 10 10 10 9 9 7 6 5 5 5 4 3 2 2 2 3 3
Wind_Direction
192 184 194 222 218 92 73 63 51 52 53 54 62 55 15 24 0 46 100 149 144 147 146 150 153 149 146 144 143 142 140 138 137 138 140 142 144 147 150 152 150 147 146 145 148 144 145 138 138
169 168 214 238 104 84 73 54 51 43 64 74 68 56 65 59 41 79 131 143 149 148 151 151 149 152 150 149 148 147 144 142 139 139 140 143 146 148 150 150 150 151 149 144 144 144 140 141 132
167 209 255 170 67 65 68 52 52 62 53 36 59 48 39 42 63 106 130 148 152 149 152 140 153 155 154 153 152 150 149 148 148 148 148 148 147 149 151 154 156 158 155 145 142 145 145 141 130
190 220 231 95 81 64 46 49 52 71 62 43 49 71 69 44 53 107 133 150 150 151 153 144 159 158 158 159 160 159 158 159 157 155 154 154 154 157 159 158 154 152 148 143 136 140 138 132 125
233 248 139 100 80 65 49 37 42 49 53 44 46 72 74 54 75 115 138 149 154 156 156 150 160 163 165 166 169 170 169 169 167 164 161 162 165 164 167 161 152 148 145 142 135 134 131 129 127
233 231 125 97 84 72 55 44 49 56 58 46 42 67 72 77 93 116 133 153 157 156 161 155 160 173 176 179 183 183 180 178 175 172 172 173 174 172 170 167 158 155 147 145 137 136 133 131 137
269 124 104 106 99 71 37 43 44 51 51 35 15 61 90 86 89 112 126 138 148 159 169 178 173 179 187 195 198 197 194 191 188 184 185 186 185 183 183 180 177 171 162 155 145 136 128 123 136
307 147 123 106 101 64 30 65 49 40 50 34 18 33 64 86 101 109 108 126 157 178 187 196 200 200 198 194 197 208 208 204 199 195 195 196 196 195 193 199 177 180 177 169 155 145 138 130 129
262 174 107 81 82 65 35 71 58 56 62 49 39 32 43 84 99 99 98 120 162 221 231 229 226 223 231 231 197 205 213 214 209 203 200 207 213 200 194 191 156 190 191 184 178 175 165 177 161
335 95 75 66 81 90 61 51 35 59 46 29 24 30 47 69 69 59 40 18 346 297 270 261 256 246 239 239 234 230 221 211 217 217 206 214 217 215 225 132 179 206 204 198 196 195 202 226 192
55 71 88 86 94 99 90 64 38 51 39 13 8 21 38 43 40 32 23 12 358 339 323 299 282 268 259 245 245 243 244 235 232 228 221 225 223 210 218 190 184 199 204 205 177 204 213 215 204
86 60 66 69 75 72 77 81 61 47 35 21 34 38 41 40 35 27 20 14 5 360 348 327 302 282 267 255 247 243 242 240 237 233 228 220 223 231 219 218 213 206 204 210 216 224 208 217 208
99 95 81 84 84 83 85 83 75 45 32 34 44 46 42 38 33 28 20 13 8 3 352 340 326 304 286 269 255 250 245 246 244 239 241 228 225 229 224 223 213 222 217 202 218 227 213 221 218
103 107 100 91 93 86 81 70 57 27 25 37 41 42 38 34 27 20 15 9 2 355 348 343 335 325 302 280 261 257 254 246 252 244 240 238 229 232 229 234 219 223 221 221 220 220 211 219 215
129 121 102 64 91 120 104 61 39 18 28 39 37 36 32 29 24 18 9 1 355 348 344 343 336 334 323 302 280 267 260 256 250 245 244 243 237 236 230 233 225 220 216 217 221 218 219 221 215
177 178 125 59 31 36 174 69 34 19 30 38 31 28 22 21 16 12 2 355 349 343 340 338 335 332 326 316 302 283 266 260 254 252 246 245 242 238 235 232 231 225 218 217 210 226 215 217 220
201 215 120 88 34 56 83 83 45 28 32 36 27 20 14 11 9 5 358 352 345 338 334 332 333 327 321 315 301 288 275 262 255 252 248 245 246 241 232 232 234 223 214 219 218 216 223 222 223
277 279 98 86 62 83 93 91 61 40 35 30 22 15 11 8 3 358 353 349 343 339 334 330 327 324 320 310 299 286 272 262 252 242 242 240 242 245 240 234 235 232 216 218 224 219 225 237 226
15 339 98 96 107 87 97 91 66 43 34 24 16 10 6 1 357 358 352 348 344 342 338 333 326 325 323 316 307 297 282 269 255 241 236 233 231 232 232 234 234 228 222 219 221 222 220 225 225
67 172 121 116 115 125 119 97 76 48 35 23 11 6 2 355 352 354 351 349 346 342 338 332 328 324 321 314 305 290 287 277 268 254 239 234 231 226 224 222 223 220 220 219 221 216 222 222 221
57 10 128 143 139 153 180 151 76 52 33 24 16 6 2 357 350 349 348 346 345 344 339 333 329 322 319 315 304 293 278 266 259 254 244 235 230 225 221 219 217 216 212 212 213 212 218 220 221
100 39 248 187 204 164 251 236 80 20 18 15 10 4 0 357 351 350 348 347 345 342 338 335 333 330 326 317 306 298 286 278 269 264 253 239 233 225 217 214 210 210 209 209 209 210 216 217 217
27 350 235 208 219 192 230 277 83 19 8 4 2 360 358 357 355 353 352 349 346 345 344 341 339 337 334 328 318 305 292 285 281 272 264 248 231 224 217 213 209 206 204 206 205 205 215 218 216
152 160 145 181 215 212 24 302 56 22 358 352 355 359 359 358 357 356 354 352 351 353 353 349 347 348 343 339 335 327 310 298 291 282 267 255 229 217 214 212 209 205 200 201 203 204 212 218 218
257 247 221 204 209 106 54 311 51 19 0 353 352 357 358 359 358 359 356 355 356 356 356 354 357 357 356 354 352 348 340 327 314 302 281 265 232 212 213 211 208 202 197 198 199 200 207 213 214
10 309 312 310 334 116 164 22 69 25 3 360 2 2 1 2 2 1 360 0 0 358 358 360 2 4 3 3 359 358 358 352 343 337 332 325 346 140 177 197 196 196 197 197 193 191 198 205 207
308 32 345 311 306 216 133 122 134 31 12 10 7 5 4 1 1 1 4 5 5 4 2 2 5 7 7 7 4 6 9 7 6 10 14 20 32 60 101 137 166 177 185 191 194 195 195 200 205
17 1 255 275 283 263 149 149 19 9 5 3 4 4 3 1 1 2 4 5 6 5 3 5 9 10 10 11 13 16 19 17 18 23 29 28 35 45 85 97 127 144 152 170 186 193 197 202 200
42 140 18 356 327 309 297 90 45 359 354 351 357 1 2 1 2 1 2 4 7 8 9 9 11 13 14 13 16 22 24 24 27 28 27 28 33 35 51 65 76 82 95 120 144 167 184 191 187
17 16 305 303 85 332 317 94 85 351 339 345 353 359 3 4 6 7 6 8 11 11 12 14 14 17 15 15 22 26 27 28 31 31 28 32 39 41 47 57 69 74 72 76 92 119 151 161 175